GFSFLT1_850_rhum_000.txt.gz
RH
22 21 21 27 31 27 27 25 24 29 30 30 31 33 34 34 34 34 35 33 32 32 31 31 34 35 34 33 33 34 35 35
19 18 20 23 26 26 26 25 30 30 32 33 35 35 36 37 37 37 36 37 36 34 33 32 32 35 32 34 35 37 38 37
21 22 22 24 25 25 25 25 27 30 32 32 33 35 37 38 39 40 40 41 39 40 39 38 34 33 35 36 37 37 38 40
22 22 23 23 25 26 27 27 28 29 31 33 34 36 39 40 41 42 41 38 38 41 46 44 38 34 33 34 39 40 39 41
24 23 24 24 26 26 28 29 30 33 36 39 40 41 43 44 44 40 37 38 39 40 39 44 48 44 42 37 41 44 44 46
25 25 25 26 27 29 31 34 37 38 40 41 43 44 44 43 41 38 38 38 39 40 40 39 38 39 42 43 56 47 56 58
29 30 30 31 36 39 40 40 40 42 42 44 44 42 39 37 32 28 26 28 34 36 37 38 37 44 52 66 58 60 60 53
32 33 37 41 41 42 44 46 46 46 46 43 38 35 34 31 26 23 24 37 43 42 41 43 51 61 70 66 60 52 54 64
42 44 43 43 46 49 49 47 46 44 41 38 37 39 40 36 30 27 32 50 48 46 48 57 65 68 67 71 78 87 94 99
40 41 44 47 49 47 47 42 39 41 40 41 46 41 37 34 39 34 48 54 52 54 61 69 71 69 70 89 98 98 95 85
47 47 47 50 56 47 44 48 44 46 45 44 47 52 45 43 42 44 56 56 60 65 64 64 64 65 72 85 93 58 48 56
50 52 54 58 55 50 53 47 39 38 47 59 69 57 50 42 49 59 62 66 65 63 67 72 79 77 51 49 55 59 56 51
51 56 61 65 56 64 63 52 53 61 72 72 59 56 52 64 62 63 71 69 66 69 80 95 72 63 53 43 50 57 56 53
53 52 63 66 60 71 76 67 71 73 68 61 58 53 72 63 67 67 71 72 81 88 95 90 68 59 58 60 60 58 50 37
57 63 72 62 65 77 73 67 75 65 61 62 59 75 87 66 73 73 75 81 95 97 96 93 75 63 57 59 55 44 40 38
65 78 68 56 64 62 48 70 67 61 66 69 75 98 96 86 78 81 93 97 96 94 92 88 84 66 57 50 45 46 49 48
84 63 60 63 53 46 69 69 57 73 77 90 97 96 98 99 94 94 92 89 90 80 68 66 62 54 49 54 59 64 64 64
80 72 56 51 68 76 69 62 69 77 87 97 86 84 89 88 74 64 63 65 61 58 56 53 52 56 63 69 71 70 66 62
59 52 73 78 79 65 70 83 82 80 84 83 74 73 65 61 51 44 44 46 49 53 55 56 56 61 69 70 70 64 57 58

GFSFLT1_850_rhum_003.txt.gz
RH
44 26 23 25 35 45 29 23 24 31 32 33 34 34 34 34 35 36 36 36 36 37 39 38 38 35 32 32 32 32 33 32
21 20 19 24 38 37 26 25 30 33 32 32 32 32 33 35 36 37 38 39 40 40 39 39 42 43 40 36 35 36 34 34
21 21 23 25 26 27 26 28 29 30 31 31 32 33 33 35 38 38 40 40 39 37 37 36 38 42 45 43 40 44 42 37
23 22 23 24 26 28 29 30 30 31 34 37 39 40 40 40 40 41 41 39 36 34 35 36 37 38 38 45 46 41 50 47
25 26 27 28 29 30 31 34 38 41 42 42 42 44 46 44 40 35 29 25 22 20 21 26 34 36 37 37 39 44 49 61
28 28 29 30 33 36 40 43 43 42 43 42 42 42 41 37 31 25 19 14 13 14 18 25 32 36 36 35 36 45 57 67
34 37 44 44 44 44 43 43 43 42 40 38 41 40 35 30 24 19 16 15 16 18 30 40 45 44 44 48 51 66 84 86
37 43 46 45 44 44 44 44 43 41 42 39 37 34 31 27 24 22 20 18 23 40 51 50 49 52 59 63 66 77 83 94
46 45 44 44 44 47 47 46 43 46 43 37 34 32 32 29 29 27 22 26 38 55 57 60 65 65 67 71 74 80 82 96
46 46 46 47 50 49 48 48 47 43 31 33 40 52 53 43 37 34 34 41 59 64 65 72 73 71 76 84 76 83 87 86
42 41 42 46 54 56 53 52 52 47 50 60 71 65 52 46 45 51 53 60 72 72 70 65 56 59 68 77 91 73 57 53
46 47 49 55 66 66 55 61 70 59 64 73 63 51 50 52 61 63 61 71 76 63 68 65 78 95 97 93 86 77 59 55
54 53 55 62 69 62 55 70 68 68 73 58 53 58 61 66 74 69 76 83 72 72 76 83 96 97 84 71 63 63 61 60
59 58 62 76 73 66 70 52 62 66 58 56 61 67 74 91 82 82 86 87 89 89 95 96 92 80 75 63 53 52 54 48
67 70 69 75 65 63 53 50 64 61 48 51 69 87 92 91 91 92 95 97 97 93 89 84 86 85 83 69 63 63 47 44
80 84 77 70 60 56 57 71 65 52 60 73 84 85 94 99 97 96 87 68 57 58 62 63 66 65 61 56 49 48 52 54
83 74 67 59 54 64 77 57 58 73 74 80 92 85 81 71 62 59 49 42 44 50 52 53 52 50 52 55 61 69 68 70
85 72 51 51 80 80 51 54 78 79 70 80 72 65 59 58 56 48 36 36 41 45 49 51 52 56 63 69 74 79 85 73
65 42 56 82 73 50 50 73 83 75 66 73 76 64 54 51 41 38 40 42 46 48 51 57 64 67 72 71 70 68 73 77

GFSFLT1_850_rhum_006.txt.gz
RH
42 44 44 40 34 50 61 42 37 27 35 33 35 34 36 33 34 35 37 38 40 40 40 40 53 74 70 65 67 64 61 57
38 33 23 27 35 55 54 53 25 28 37 38 40 42 43 46 46 37 39 40 41 40 38 40 38 59 64 46 68 71 73 66
32 33 35 43 50 51 43 34 30 31 36 33 36 40 48 40 43 40 40 38 34 25 24 31 49 55 61 64 70 72 72 73
31 36 35 32 31 34 35 32 32 34 40 49 49 49 48 48 47 42 33 30 22 17 16 15 16 31 54 61 65 69 64 68
32 35 40 30 30 32 34 38 43 43 42 44 42 52 51 43 47 52 37 28 14 11 10 10 12 22 54 61 57 65 69 63
42 45 47 52 51 45 48 56 48 43 43 45 51 53 58 60 58 54 44 40 30 17 13 14 23 37 57 45 51 76 81 75
47 50 51 54 58 48 46 51 55 45 48 47 42 55 67 61 54 48 45 48 47 53 36 30 47 55 71 73 78 82 89 96
46 48 49 55 54 45 45 46 56 60 54 54 51 48 58 59 57 55 56 52 52 61 44 79 77 84 86 91 96 99 98 99
47 47 49 56 53 46 46 51 59 59 53 48 37 57 67 66 64 59 52 57 56 56 88 90 90 91 94 97 100 99 99 100
45 47 51 58 66 67 60 54 57 60 62 68 51 71 73 55 42 43 66 63 76 91 98 92 83 89 92 98 100 91 94 97
44 46 49 59 62 67 63 66 70 74 79 71 71 62 57 50 65 77 81 88 95 92 86 86 90 96 100 91 86 92 96 84
48 51 53 58 67 71 74 77 80 80 74 73 74 72 74 76 82 87 93 95 90 86 88 94 100 99 94 94 94 97 84 78
48 53 59 67 72 75 75 78 69 54 57 75 80 81 81 83 90 98 100 100 99 98 99 96 96 94 98 98 96 85 71 64
49 55 65 72 72 74 67 57 61 78 73 73 75 85 87 92 99 100 100 99 98 98 99 99 99 98 98 89 78 71 71 72
60 72 73 73 74 66 57 82 82 70 75 77 79 86 99 92 86 98 97 96 94 90 84 83 82 74 70 66 65 70 72 68
71 73 76 73 68 70 78 83 71 65 84 79 85 87 85 80 77 74 72 68 58 59 58 60 63 63 56 63 68 71 73 75
81 81 64 56 60 75 85 68 71 88 81 83 81 81 76 70 67 61 56 55 58 60 61 63 67 66 74 66 64 86 80 74
68 73 53 60 70 87 68 65 75 85 81 79 81 83 68 63 56 51 55 59 63 66 68 75 78 79 80 68 58 67 84 83
65 59 55 63 72 71 68 66 71 76 78 78 85 77 66 58 55 57 60 60 64 67 73 79 82 79 82 70 63 74 94 93

GFSFLT1_850_rhum_009.txt.gz
RH
29 38 35 35 38 42 45 56 39 47 50 54 43 44 46 44 45 49 54 54 52 47 52 55 58 61 58 57 60 64 66 64
36 34 35 41 52 48 47 47 48 46 42 42 38 39 42 46 48 56 59 52 36 35 48 50 50 49 48 39 49 57 61 62
31 36 38 41 50 53 51 50 47 43 42 48 48 47 49 52 50 52 51 52 50 49 44 44 44 47 44 46 50 57 61 61
32 37 44 49 50 48 48 51 54 53 49 48 49 47 46 46 50 53 54 59 52 49 49 55 59 59 55 54 56 58 61 61
29 36 42 52 55 55 54 54 53 54 43 54 58 56 56 59 58 57 57 51 47 48 50 58 69 63 63 61 56 63 67 66
36 40 45 51 58 61 57 55 56 59 59 60 63 66 67 64 60 57 55 48 52 50 52 56 61 65 71 77 78 82 80 73
39 42 44 51 58 60 58 54 52 60 66 66 67 64 58 61 58 57 52 57 54 53 57 70 74 75 78 79 79 83 87 95
38 40 42 49 53 56 57 52 52 53 60 64 60 59 64 63 62 60 63 57 58 62 76 81 78 76 78 83 87 81 99 93
40 41 44 46 51 53 61 61 56 52 58 63 65 68 70 69 69 72 69 67 70 74 82 83 82 80 82 87 98 97 98 99
37 39 41 46 51 53 61 63 60 59 65 69 74 75 74 75 76 74 72 75 74 73 79 78 80 82 93 92 96 94 98 98
36 39 42 46 49 53 58 64 61 62 67 71 72 74 78 76 73 74 76 77 80 80 80 91 98 96 97 95 98 98 99 99
38 42 46 52 51 57 60 65 70 69 69 71 73 74 74 72 70 72 86 86 92 90 92 81 88 88 93 98 99 98 97 97
40 42 48 55 59 60 61 74 74 71 68 66 64 64 66 65 72 83 89 92 98 97 100 100 100 99 98 98 98 93 86 84
48 52 53 57 61 65 70 69 70 72 68 64 60 61 67 75 82 83 87 84 80 80 79 80 73 70 64 60 58 61 69 70
54 58 59 62 70 69 60 60 67 67 66 61 61 69 72 73 80 79 70 64 60 55 52 53 54 54 55 54 58 66 63 56
63 64 65 67 58 49 54 63 64 61 65 61 64 67 68 69 70 64 60 56 53 52 53 55 56 57 55 62 70 79 78 72
76 64 59 51 47 50 54 61 55 59 63 62 62 65 80 75 64 58 50 50 52 56 57 58 61 59 64 71 72 75 81 77
72 61 53 50 46 47 52 56 53 56 57 60 58 74 83 71 62 49 48 51 54 57 58 60 64 70 80 82 77 78 94 88
62 57 50 44 40 42 46 62 50 54 56 57 66 74 79 67 58 49 50 51 56 58 61 69 76 76 93 95 89 93 95 90

GFSFLT1_850_rhum_015.txt.gz
RH
34 35 38 38 41 42 59 65 64 55 54 53 52 50 48 49 49 50 51 51 50 52 50 56 55 51 45 39 39 38 33 30
40 48 43 46 58 68 72 66 53 53 55 53 50 46 45 50 52 52 52 51 51 53 54 56 50 47 48 47 40 35 20 22
46 48 53 55 52 52 55 55 51 45 45 45 46 46 47 47 48 52 52 56 59 62 63 51 50 50 48 44 48 40 52 60
43 49 51 50 50 50 49 49 49 47 45 47 47 45 44 48 49 54 64 64 61 56 53 52 50 46 52 52 42 58 77 74
48 46 43 44 49 50 50 46 44 46 45 45 48 56 60 64 68 63 56 54 57 56 55 51 39 41 43 42 70 85 82 79
46 46 46 50 49 48 47 52 52 54 53 54 62 65 59 60 63 64 64 64 63 61 52 36 44 69 79 82 82 80 79 76
40 43 47 47 50 51 52 54 57 57 58 61 60 61 64 67 67 68 68 67 60 49 51 58 72 82 83 85 83 70 70 74
42 46 50 50 50 52 55 56 55 57 56 63 66 67 70 72 73 72 72 56 54 63 64 64 70 78 84 83 82 76 81 91
39 38 40 44 48 49 50 52 56 61 63 62 67 71 71 73 73 69 59 58 71 77 79 65 77 89 87 89 94 96 94 84
39 42 42 45 48 52 54 57 60 63 65 67 69 70 70 68 64 67 68 74 76 78 52 77 89 77 78 77 78 78 77 79
44 47 50 51 54 56 58 60 61 65 70 69 68 66 65 64 67 68 70 70 66 47 52 68 80 80 81 75 73 69 68 67
46 49 51 52 54 58 61 64 67 67 64 65 65 66 63 62 60 62 64 52 41 63 71 70 63 56 54 54 54 55 59 62
47 49 53 58 56 60 58 56 55 58 57 60 65 64 62 59 58 62 58 48 66 68 65 63 56 53 54 56 57 57 58 62
58 60 58 59 61 55 50 50 51 50 50 63 65 63 76 85 77 65 62 66 67 67 60 54 53 54 54 56 59 61 61 60
59 52 63 63 56 50 50 49 45 42 48 57 56 61 76 84 78 80 74 78 69 58 51 52 50 54 57 60 61 62 62 64
61 62 61 53 52 48 40 37 37 40 48 47 57 67 83 82 83 90 94 76 59 52 53 51 56 58 61 63 66 69 68 68
55 57 55 52 44 41 38 39 38 38 38 39 48 62 70 76 90 98 83 67 55 56 50 56 61 66 70 75 81 77 69 73
52 49 47 37 38 38 38 37 37 37 38 39 58 65 60 79 96 75 86 78 60 53 56 62 67 73 80 90 78 76 86 84
43 37 35 34 33 34 37 37 35 36 37 42 51 56 62 72 71 98 77 75 60 56 66 71 72 82 77 70 78 86 92 96